Regional Weather Roundup
Issued by NWS Northern Indiana

Home | Current Version | Previous Version | Graphics & Text | Print | Product List | Glossary On
Versions: 1 2 3 4 5 6 7 8 9 10 11 12 13 14 15 16 17 18 19 20 21 22 23 24 25 26 27 28 29 30 31 32 33 34 35 36 37 38 39 40 41 42 43 44 45 46 47 48 49 50
000
ASUS43 KIWX 030700
RWRIWX

KIWX WEATHER ROUNDUP
NATIONAL WEATHER SERVICE NORTHERN INDIANA
200 AM EST SAT DEC 03 2016

NOTE: "FAIR" INDICATES FEW OR NO CLOUDS BELOW 12,000 FEET WITH NO
SIGNIFICANT WEATHER AND/OR OBSTRUCTIONS TO VISIBILITY.

* THESE STATIONS ARE NOT UNDER NWS QUALITY CONTROL. THEY ALSO MAY NOT
  REPORT WEATHER SUCH AS PRECIPITATION OR FOG.

INZ001>027-030800-
NORTHERN INDIANA

CITY           SKY/WX    TMP DP  RH WIND       PRES   REMARKS
GARY*          CLOUDY    36  25  64 W7        30.32S
VALPARAISO     CLOUDY    35  25  66 W6        30.30S WCI  30
LAPORTE*       CLOUDY    36  31  82 W6        30.30S
SOUTH BEND     CLOUDY    35  27  72 CALM      30.30S
GOSHEN         CLOUDY    35  27  72 W6        30.29R WCI  30
WARSAW*        CLOUDY    34  28  80 W5        30.29S WCI  30
ANGOLA*        CLOUDY    36  28  75 W3        30.26S
FORT WAYNE     CLOUDY    35  29  78 W5        30.29R WCI  31
PERU/GRISSOM   CLOUDY    36  34  92 NW3       30.28F

$$
INZ028>050-030800-
CENTRAL INDIANA

CITY           SKY/WX    TMP DP  RH WIND       PRES   REMARKS
LAFAYETTE      CLOUDY    36  31  82 CALM      30.32S
KOKOMO*        CLOUDY    36  32  85 NW5       30.30F
MUNCIE*        CLOUDY    37  32  82 NW5       30.29F
INDIANAPOLIS   NOT AVBL

$$
MIZ043>046-050>051-056>058-064>065-071>073-077>080-030800-
SOUTHWEST LOWER MICHIGAN

CITY           SKY/WX    TMP DP  RH WIND       PRES   REMARKS
BATTLE CREEK   CLOUDY    35  30  82 W3        30.27R
BENTON HARBOR  CLOUDY    37  27  67 W7        30.29S
COLDWATER*     CLOUDY    35  28  73 NW3       30.27R
HILLSDALE*     CLOUDY    32  30  93 NW5       30.25R WCI  27
HOLLAND        CLOUDY    37  28  70 NW6       30.28S
GRAND RAPIDS   CLOUDY    36  28  73 W6        30.27S
KALAMAZOO      CLOUDY    36  28  73 CALM      30.27S
STURGIS*       CLOUDY    36  27  70 W3        30.26S
THREE RIVERS*  CLOUDY    37  30  77 W5        30.28R

$$
OHZ001>008-015>018-024>025-030800-
NORTHWEST OHIO

CITY           SKY/WX    TMP DP  RH WIND       PRES   REMARKS
DEFIANCE       CLOUDY    35  27  72 CALM      30.29S
FINDLAY        CLEAR     29  24  82 W6        30.27S WCI  23
TOLEDO EXPRESS CLOUDY    35  30  82 NW3       30.27S
TOLEDO METCALF CLOUDY    36  29  75 W7        30.28R
LIMA           CLOUDY    35  30  82 W6        30.28R WCI  30

$$
AND FOR LAKE MICHIGAN COASTAL AND OPEN LAKE BUOY OBSERVATIONS

STATION/POSITION TEMP    WIND        PRES    VSBY  WAVE
                 AIR SEA DIR/SP/G                  HT/PER
                 (F)     (DEG/KT/KT) (MB)    (MI)  (FT/S)
CALUMET HARBOR    35     260/  4/  8 1026.0
MICHIGAN CITY     37     280/ 13/ 15   N/A
BURNS HARBOR      38     260/  9/ 14 1026.8R
SAINT JOSEPH      38     260/  8/ 10 1025.4
SOUTH LAKE BUOY   36 49  250/  8/ 12 1026.2          2/ 5

$$
&&



USA.gov is the U.S. government's official web portal to all federal, state and local government web resources and services.